User: anonymous   Login
Location: Taipo
(41.0000°S, 175.9500°E)
Time: 03:55:53
(UTC+00:00)
Language:

COSMOS 2406 - Orbit

View from above orbital plane
View from above orbital plane
View from above satellite
View from above satellite

Ground track
Ground track

The orbit data is extracted from the following two-line orbital elements,

1 28352U 04021A   24174.44008221 -.00000069  00000-0 -11601-4 0  9996
2 28352  70.9982 173.8773 0012110 181.5861 178.5224 14.11917236 32401
Epoch (UTC): 22 June 2024 10:33:43
Eccentricity: 0.0012110
inclination: 70.9982°
perigee height: 844 km
apogee height: 861 km
right ascension of ascending node: 173.8773°
argument of perigee: 181.5861°
revolutions per day: 14.11917236
mean anomaly at epoch: 178.5224°
orbit number at epoch: 3240

The dashed part of the orbit path shows where the satellite is in the earth's shadow,  

DLR